Location: Équennes
(49.7375°N, 1.9622°E)
Time: 01:49:40
(UTC+00:00)

IRIDIUM 103 - Pass Details

Date: 28 January 2023
Orbit: 776 x 779 km, 86.4° (Epoch: 30 March)

Event Time Altitude Azimuth Distance (km) Brightness Sun altitude
Rises 18:47:50 0° 359° (N) 3,275 7.5 -20.6°
Reaches altitude 10° 18:50:16 10° 4° (N) 2,343 6.7 -20.9°
Maximum altitude 18:55:24 55° 82° (E) 938 4.3 -21.8°
Enters shadow 18:57:26 34° 141° (SE) 1,264 5.1 -22.1°
Exits shadow 19:02:17 - 164° (SSE) 3,007 7.2 -22.9°
Sets 19:02:54 0° 165° (SSE) 3,248 7.4 -23.0°
